This demonstration page uses our WeatherBlox Daily Observations layout. Learn more.

Left ArrowRight Arrow

30.21309, -93.2044

Hourly Observations for March 22, 2015

Temp ( °F °C ) Dew Point ( °F °C ) Humidity (%) Winds ( mph kmh ) Pressure ( in mb ) Visibility ( mi km ) Precip ( " mm )
12:15 am 00:15 Cloudy 64 17.5 63 17.2 98 98 Calm 30.00 1016 7 11 0.00 0.00
12:35 am 00:35 Cloudy 64 17.6 63 17.3 98 98 E 7 11 30.00 1016 10 16 0.00 0.00
12:55 am 00:55 Cloudy 64 17.6 63 17.3 98 98 E 7 11 29.97 1015 10 16 0.00 0.00
1:15 am 01:15 Cloudy with Light Rain 64 17.6 63 17.4 99 99 E 6 9 29.97 1015 10 16 0.00 0.00
1:35 am 01:35 Cloudy 64 17.8 64 17.5 98 98 E 5 7 29.97 1015 7 11 0.00 0.00
1:55 am 01:55 Cloudy with Light Rain 64 17.9 64 17.6 98 98 Calm 29.97 1015 7 11 0.00 0.00
2:15 am 02:15 Cloudy 64 18 64 17.7 98 98 Calm 29.97 1015 7 11 0.00 0.00
2:35 am 02:35 Cloudy 64 17.9 64 17.7 99 99 Calm 29.97 1015 7 11 0.00 0.00
2:55 am 02:55 Cloudy with Mist and Fog 64 18 64 17.7 98 98 Calm 29.97 1015 5 8 0.00 0.00
3:15 am 03:15 Cloudy with Mist and Fog 64 17.9 64 17.7 99 99 E 5 7 29.94 1014 4 6 0.00 0.00
3:35 am 03:35 Cloudy with Mist and Fog 64 18 64 17.7 98 98 E 3 6 29.94 1014 4 6 0.00 0.00
3:55 am 03:55 Cloudy with Mist and Fog 64 18 64 17.8 99 99 ESE 5 7 29.94 1014 4 6 0.00 0.00
4:15 am 04:15 Cloudy with Mist and Fog 64 18 64 17.9 99 99 SE 5 7 29.91 1013 4 6 0.00 0.00
4:35 am 04:35 Cloudy with Mist and Fog 65 18.2 64 18 99 99 Calm 29.91 1013 4 6 0.00 0.00
4:55 am 04:55 Cloudy with Mist and Fog 65 18.3 65 18.1 99 99 SSE 5 7 29.91 1013 5 8 0.00 0.00
5:15 am 05:15 Cloudy with Mist and Fog 65 18.6 65 18.5 99 99 SSW 5 7 29.91 1013 5 8 0.00 0.00
6:00 am 06:00 Cloudy with Mist and Fog 66 19 66 19 100 100 SW 6 9 29.91 1013 5 8 0.00 0.00
6:50 am 06:50 Cloudy with Mist and Fog 66 19 66 19 100 100 SW 6 9 29.94 1014 5 8 0.00 0.00
7:50 am 07:50 Cloudy with Mist and Fog 66 19 66 19 100 100 W 7 11 29.94 1014 5 8 0.00 0.00
8:50 am 08:50 Cloudy with Mist and Fog 66 19 66 19 100 100 W 7 11 29.94 1014 5 8 0.00 0.00
10:50 am 10:50 Cloudy 66 19 63 17 88 88 W 9 15 30.00 1016 10 16 0.00 0.00
11:50 am 11:50 Cloudy 68 20 63 17 83 83 W 12 19 29.97 1015 10 16 0.00 0.00
12:50 pm 12:50 Cloudy 66 19 61 16 83 83 W 9 15 29.97 1015 10 16 0.00 0.00
1:50 pm 13:50 Cloudy 68 20 61 16 78 78 W 8 13 29.97 1015 10 16 0.00 0.00
2:50 pm 14:50 Cloudy 68 20 61 16 78 78 WNW 7 11 29.94 1014 10 16 0.00 0.00
3:50 pm 15:50 Mostly Cloudy 70 21 61 16 73 73 NW 8 13 29.91 1013 10 16 0.00 0.00
4:50 pm 16:50 Mostly Cloudy 72 22 61 16 69 69 NNW 3 6 29.91 1013 10 16 0.00 0.00
9:50 pm 21:50 Cloudy 63 17 55 13 77 77 NW 8 13 30.00 1016 10 16 0.00 0.00
10:15 pm 22:15 Cloudy 63 17 57 13.7 81 81 NNW 9 15 30.00 1016 10 16 0.00 0.00
10:35 pm 22:35 Cloudy 62 16.6 57 13.8 84 84 NNW 8 13 30.03 1017 10 16 0.00 0.00
10:55 pm 22:55 Cloudy 62 16.5 56 13.5 83 83 NNW 10 17 30.03 1017 10 16 0.00 0.00
11:15 pm 23:15 Cloudy 61 16.1 56 13.2 83 83 N 9 15 30.03 1017 10 16 0.00 0.00
11:35 pm 23:35 Cloudy 61 15.9 55 12.7 81 81 NNW 10 17 30.03 1017 10 16 0.00 0.00
11:55 pm 23:55 Cloudy 60 15.5 54 12.2 81 81 NNW 12 19 30.03 1017 10 16 0.00 0.00

Powered by AerisWeather